Change the Weather History Date:

Friday, March 2, 2012

  Actual Average Record
Temperature  
Mean Temperature 72 °F -  
Max Temperature 80 °F 68 °F 82 °F (2004)
Min Temperature 64 °F 45 °F 20 °F (1980)
Cooling Degree Days 7    
Growing Degree Days 22 (Base 50)    
Moisture  
Dew Point 66 °F    
Average Humidity 83    
Maximum Humidity 100    
Minimum Humidity 54    
Precipitation  
Precipitation 1.66 in - - ()
Sea Level Pressure  
Sea Level Pressure 29.77 in    
Wind  
Wind Speed 10 mph (SSW)    
Max Wind Speed 29 mph    
Max Gust Speed 47 mph    
Visibility 9 miles    
Events Fog , Rain , Thunderstorm    
Averages and records for this station are not official NWS values.
T = Trace of Precipitation, MM = Missing Value Source: NWS Daily Summary

Daily Weather History Graph

Daily Weather History Graph

Search for Another Location

Airport or City:

Trip Planner

Search our weather history database for the weather conditions in past years. The results will help you decide how hot, cold, wet, or windy it might be!

Date:

Astronomy

Mar. 02, 2012 Rise Set
Actual Time 6:26 AM CST 6:01 PM CST
Civil Twilight 6:02 AM CST 6:25 PM CST
Nautical Twilight 5:34 AM CST 6:53 PM CST
Astronomical Twilight 5:06 AM CST 7:21 PM CST
Moon 12:30 PM CST 1:59 AM CST
Length of Visible Light 12h 23m
Length of Day
11h 34m
Waxing Gibbous, 66% of the Moon is Illuminated
Mar 2
Waxing Gibbous
Mar 8
Full
Mar 14
Last Quarter
Mar 22
New
Mar 30
First Quarter

Hourly Weather History & Observations

Time (CST) Temp. Heat Index Dew Point Humidity Pressure Visibility Wind Dir Wind Speed Gust Speed Precip Events Conditions
12:53 AM 70.0 °F - 66.9 °F 90% 29.83 in 9.0 mi South 9.2 mph - N/A   Overcast
1:53 AM 70.0 °F - 66.9 °F 90% 29.82 in 10.0 mi SSW 10.4 mph 17.3 mph N/A   Overcast
2:53 AM 70.0 °F - 68.0 °F 93% 29.80 in 9.0 mi South 9.2 mph - N/A   Overcast
3:05 AM 69.8 °F - 68.0 °F 94% 29.82 in 9.0 mi South 6.9 mph - N/A   Overcast
3:53 AM 70.0 °F - 66.9 °F 90% 29.81 in 9.0 mi South 10.4 mph - N/A   Overcast
4:53 AM 69.1 °F - 66.9 °F 93% 29.80 in 9.0 mi South 8.1 mph - N/A   Overcast
5:18 AM 68.0 °F - 66.2 °F 94% 29.81 in 9.0 mi South 8.1 mph - N/A   Overcast
5:53 AM 68.0 °F - 66.0 °F 93% 29.80 in 10.0 mi South 6.9 mph - N/A   Overcast
6:09 AM 68.0 °F - 66.2 °F 94% 29.81 in 10.0 mi South 12.7 mph - N/A   Overcast
6:42 AM 68.0 °F - 66.2 °F 94% 29.81 in 10.0 mi South 9.2 mph - N/A   Overcast
6:53 AM 68.0 °F - 66.0 °F 93% 29.80 in 9.0 mi South 9.2 mph - N/A   Overcast
7:33 AM 69.8 °F - 64.4 °F 83% 29.82 in 9.0 mi South 10.4 mph - N/A   Overcast
7:53 AM 70.0 °F - 66.0 °F 87% 29.82 in 10.0 mi SSW 9.2 mph - N/A   Overcast
8:53 AM 71.1 °F - 64.9 °F 81% 29.83 in 10.0 mi South 10.4 mph 18.4 mph N/A   Overcast
9:25 AM 73.4 °F - 64.4 °F 73% 29.84 in 10.0 mi South 15.0 mph 24.2 mph N/A   Scattered Clouds
9:53 AM 73.9 °F - 64.0 °F 71% 29.83 in 10.0 mi South 13.8 mph 25.3 mph N/A   Scattered Clouds
10:10 AM 73.4 °F - 64.4 °F 73% 29.84 in 10.0 mi SSW 17.3 mph 28.8 mph N/A   Mostly Cloudy
10:48 AM 75.2 °F - 64.4 °F 69% 29.83 in 10.0 mi SW 9.2 mph 23.0 mph N/A   Mostly Cloudy
10:53 AM 75.0 °F - 64.0 °F 69% 29.81 in 10.0 mi SW 11.5 mph 21.9 mph N/A   Mostly Cloudy
11:00 AM 75.2 °F - 64.4 °F 69% 29.82 in 10.0 mi SSW 10.4 mph 18.4 mph N/A   Mostly Cloudy
11:53 AM 79.0 °F - 63.0 °F 58% 29.80 in 10.0 mi SW 11.5 mph 21.9 mph N/A   Mostly Cloudy
12:53 PM 79.0 °F - 62.1 °F 56% 29.76 in 10.0 mi SW 11.5 mph 23.0 mph N/A   Mostly Cloudy
1:53 PM 80.1 °F 81.2 °F 62.1 °F 54% 29.75 in 10.0 mi SW 6.9 mph 20.7 mph N/A   Mostly Cloudy
2:53 PM 80.1 °F 81.5 °F 63.0 °F 56% 29.72 in 10.0 mi SSW 13.8 mph 19.6 mph N/A   Mostly Cloudy
3:50 PM 78.8 °F - 64.4 °F 61% 29.71 in 10.0 mi SSW 12.7 mph 23.0 mph 0.00 in Thunderstorm Thunderstorm
3:53 PM 79.0 °F - 64.0 °F 60% 29.70 in 10.0 mi SSW 11.5 mph 23.0 mph 0.00 in Thunderstorm Thunderstorm
4:13 PM 78.8 °F - 64.4 °F 61% 29.71 in 10.0 mi SSW 16.1 mph 25.3 mph N/A   Mostly Cloudy
4:53 PM 78.1 °F - 64.9 °F 64% 29.69 in 10.0 mi SSW 13.8 mph 20.7 mph N/A   Scattered Clouds
5:15 PM 75.2 °F - 66.2 °F 73% 29.71 in 10.0 mi SSW 11.5 mph 18.4 mph N/A Thunderstorm Partly Cloudy
5:41 PM 73.4 °F - 66.2 °F 78% 29.72 in 10.0 mi SSW 12.7 mph 24.2 mph N/A   Mostly Cloudy
5:53 PM 73.0 °F - 66.0 °F 79% 29.71 in 10.0 mi South 6.9 mph - N/A   Scattered Clouds
6:53 PM 72.0 °F - 66.9 °F 84% 29.71 in 10.0 mi SSW 6.9 mph - N/A   Mostly Cloudy
7:03 PM 71.6 °F - 66.2 °F 83% 29.73 in 10.0 mi SW 4.6 mph - N/A   Overcast
7:24 PM 71.6 °F - 68.0 °F 88% 29.74 in 10.0 mi SSW 5.8 mph - N/A   Overcast
7:33 PM 71.6 °F - 68.0 °F 88% 29.74 in 10.0 mi SSW 4.6 mph - N/A   Overcast
7:53 PM 72.0 °F - 68.0 °F 87% 29.73 in 10.0 mi SSW 8.1 mph - N/A   Overcast
8:48 PM 71.6 °F - 69.8 °F 94% 29.73 in 10.0 mi SSW 8.1 mph - N/A   Overcast
8:53 PM 72.0 °F - 69.1 °F 91% 29.72 in 10.0 mi SSW 12.7 mph 17.3 mph N/A   Overcast
9:37 PM 71.6 °F - 69.8 °F 94% 29.74 in 10.0 mi SSW 9.2 mph 18.4 mph 0.00 in Rain Light Rain
9:53 PM 71.1 °F - 68.0 °F 90% 29.73 in 10.0 mi South 10.4 mph 17.3 mph 0.00 in   Overcast
10:23 PM 71.6 °F - 68.0 °F 88% 29.74 in 9.0 mi South 15.0 mph - 0.00 in   Overcast
10:28 PM 71.6 °F - 68.0 °F 88% 29.73 in 10.0 mi South 10.4 mph 17.3 mph 0.00 in Thunderstorm Overcast
10:37 PM 71.6 °F - 68.0 °F 88% 29.74 in 9.0 mi SSW 9.2 mph - 0.00 in Thunderstorm Overcast
10:53 PM 70.0 °F - 68.0 °F 93% 29.73 in 9.0 mi SW 9.2 mph - 0.00 in Rain Light Rain
11:04 PM 69.8 °F - 68.0 °F 94% 29.74 in 2.5 mi SSW 12.7 mph - 0.13 in Rain , Thunderstorm Heavy Thunderstorms and Rain
11:09 PM 69.8 °F - 69.8 °F 100% 29.74 in 0.8 mi SSW 12.7 mph 24.2 mph 0.44 in Rain , Thunderstorm Heavy Thunderstorms and Rain
11:16 PM 69.8 °F - 66.2 °F 88% 29.80 in 0.5 mi West 28.8 mph 47.2 mph 0.82 in Fog , Rain , Thunderstorm Heavy Thunderstorms and Rain
11:25 PM 64.4 °F - 64.4 °F 100% 29.75 in 0.5 mi SW 10.4 mph 44.9 mph 1.10 in Fog , Rain , Thunderstorm Heavy Thunderstorms and Rain
11:34 PM 64.4 °F - 64.4 °F 100% 29.74 in 1.0 mi WSW 8.1 mph 17.3 mph 1.40 in Rain , Thunderstorm Heavy Thunderstorms and Rain
11:41 PM 66.2 °F - 64.4 °F 94% 29.74 in 0.8 mi WSW 11.5 mph 17.3 mph 1.65 in Rain , Thunderstorm Heavy Thunderstorms and Rain
11:48 PM 66.2 °F - 66.2 °F 100% 29.76 in 2.0 mi West 12.7 mph - 1.66 in Rain , Thunderstorm Light Thunderstorms and Rain
11:53 PM 68.0 °F - 64.9 °F 90% 29.76 in 10.0 mi NW 15.0 mph - 1.66 in Rain , Thunderstorm Light Thunderstorms and Rain